Weather History for North Bend, OR

Change the Weather History Date:

Tuesday, October 14, 2014

  Actual Average Record
Temperature  
Mean Temperature 57 °F 54 °F  
Max Temperature 59 °F 61 °F 79 °F (1978)
Min Temperature 54 °F 46 °F 29 °F (1930)
Degree Days  
Heating Degree Days 8 11  
Month to date heating degree days 66 147  
Since 1 July heating degree days 434 755  
Cooling Degree Days 0 0  
Month to date cooling degree days 5 0  
Year to date cooling degree days 27 2  
Growing Degree Days 6 (Base 50)    
Moisture  
Dew Point 56 °F    
Average Humidity 100    
Maximum Humidity 100    
Minimum Humidity 100    
Precipitation  
Precipitation 0.84 in 0.14 in 0.94 in (1968)
Month to date precipitation 1.13 1.47  
Year to date precipitation 25.41 40.29  
Sea Level Pressure  
Sea Level Pressure 29.75 in    
Wind  
Wind Speed 5 mph (SSE)    
Max Wind Speed 10 mph    
Max Gust Speed 21 mph    
Visibility 8 miles    
Events      
T = Trace of Precipitation, MM = Missing Value Source: NWS Daily Summary

Daily Weather History Graph

Daily Weather History Graph

Search for Another Location

Airport:

Trip Planner

Search our weather history database for the weather conditions in past years. The results will help you decide how hot, cold, wet, or windy it might be!

Date:

Astronomy

Oct. 14, 2014 Rise Set
Actual Time 7:29 AM PDT 6:35 PM PDT
Civil Twilight 7:01 AM PDT 7:04 PM PDT
Nautical Twilight 6:27 AM PDT 7:37 PM PDT
Astronomical Twilight 5:54 AM PDT 8:10 PM PDT
Moon 11:41 PM PDT (10/14) 1:39 PM PDT (10/14)
Length of Visible Light 12h 02m
Length of Day
11h 05m
Waning Gibbous, 60% of the Moon is Illuminated
Oct 14
Waning Gibbous
Oct 15
Last Quarter
Oct 23
New
Oct 30
First Quarter
Nov 6
Full

Hourly Weather History & Observations

Time (PDT) Temp. Dew Point Humidity Pressure Visibility Wind Dir Wind Speed Gust Speed Precip Events Conditions
12:15 AM 57.2 °F 57.2 °F 100% 29.90 in 9.0 mi SSW 4.6 mph - 0.01 in   Mostly Cloudy
12:35 AM 57.2 °F 57.2 °F 100% 29.91 in 8.0 mi South 4.6 mph - 0.02 in   Overcast
12:55 AM 57.2 °F 57.2 °F 100% 29.91 in 5.0 mi Calm Calm - 0.03 in   Overcast
1:15 AM 55.4 °F 55.4 °F 100% 29.90 in 5.0 mi SSE 8.1 mph - 0.02 in   Overcast
1:35 AM 55.4 °F 55.4 °F 100% 29.90 in 10.0 mi SSE 6.9 mph - 0.03 in   Overcast
1:55 AM 55.4 °F 55.4 °F 100% 29.89 in 10.0 mi SE 6.9 mph - 0.04 in   Overcast
2:15 AM 55.4 °F 55.4 °F 100% 29.89 in 10.0 mi SSE 8.1 mph - 0.01 in   Overcast
2:35 AM 55.4 °F 55.4 °F 100% 29.91 in 10.0 mi South 6.9 mph - 0.01 in   Overcast
2:55 AM 55.4 °F 55.4 °F 100% 29.90 in 10.0 mi SSE 3.5 mph - 0.01 in   Overcast
3:15 AM 55.4 °F 55.4 °F 100% 29.89 in 10.0 mi SE 6.9 mph - N/A   Overcast
3:35 AM 55.4 °F 55.4 °F 100% 29.89 in 10.0 mi SSE 6.9 mph - 0.02 in   Overcast
3:55 AM 55.4 °F 55.4 °F 100% 29.89 in 10.0 mi SE 6.9 mph - 0.04 in   Overcast
4:15 AM 55.4 °F 55.4 °F 100% 29.88 in 9.0 mi SSE 5.8 mph - 0.02 in   Overcast
4:35 AM 55.4 °F 55.4 °F 100% 29.88 in 10.0 mi SSE 5.8 mph - 0.03 in   Overcast
4:55 AM 55.4 °F 55.4 °F 100% 29.87 in 10.0 mi SE 5.8 mph - 0.03 in   Overcast
5:15 AM 55.4 °F 55.4 °F 100% 29.87 in 10.0 mi South 4.6 mph - 0.01 in   Overcast
5:35 AM 55.4 °F 55.4 °F 100% 29.87 in 10.0 mi South 6.9 mph - 0.01 in   Overcast
5:55 AM 55.4 °F 55.4 °F 100% 29.87 in 10.0 mi SE 4.6 mph - 0.01 in   Overcast
6:15 AM 55.4 °F 55.4 °F 100% 29.87 in 10.0 mi SE 4.6 mph - N/A   Overcast
6:35 AM 57.2 °F 57.2 °F 100% 29.87 in 10.0 mi SSE 4.6 mph - N/A   Overcast
6:55 AM 57.2 °F 57.2 °F 100% 29.87 in 10.0 mi Calm Calm - N/A   Overcast
7:15 AM 57.2 °F 57.2 °F 100% 29.86 in 10.0 mi Calm Calm - N/A   Overcast
7:35 AM 55.4 °F 55.4 °F 100% 29.86 in 10.0 mi Calm Calm - N/A   Overcast
7:55 AM 57.2 °F 57.2 °F 100% 29.85 in 10.0 mi Calm Calm - N/A   Overcast
8:15 AM 57.2 °F 57.2 °F 100% 29.86 in 10.0 mi Calm Calm - N/A   Overcast
8:35 AM 57.2 °F 57.2 °F 100% 29.85 in 10.0 mi ESE 5.8 mph - N/A   Overcast
8:55 AM 57.2 °F 57.2 °F 100% 29.84 in 9.0 mi SSE 3.5 mph - N/A   Overcast
9:15 AM 57.2 °F 57.2 °F 100% 29.84 in 5.0 mi SSE 4.6 mph - 0.02 in   Overcast
9:35 AM 57.2 °F 57.2 °F 100% 29.82 in 2.0 mi Calm Calm - 0.03 in   Overcast
9:55 AM 57.2 °F 57.2 °F 100% 29.82 in 10.0 mi Calm Calm - 0.03 in   Overcast
10:15 AM 57.2 °F 57.2 °F 100% 29.81 in 2.0 mi Calm Calm - 0.01 in   Overcast
10:35 AM 57.2 °F 57.2 °F 100% 29.80 in 6.0 mi Calm Calm - 0.02 in   Overcast
10:55 AM 57.2 °F 57.2 °F 100% 29.81 in 4.0 mi Calm Calm - 0.03 in   Overcast
11:15 AM 57.2 °F 57.2 °F 100% 29.80 in 4.0 mi Calm Calm - 0.03 in   Mostly Cloudy
11:35 AM 57.2 °F 57.2 °F 100% 29.79 in 2.5 mi SSE 3.5 mph - 0.04 in   Overcast
11:55 AM 57.2 °F 57.2 °F 100% 29.79 in 2.5 mi South 6.9 mph - 0.05 in   Overcast
12:15 PM 57.2 °F 57.2 °F 100% 29.78 in 7.0 mi SSE 4.6 mph - 0.02 in   Overcast
12:35 PM 57.2 °F 57.2 °F 100% 29.76 in 10.0 mi SE 8.1 mph - 0.03 in   Mostly Cloudy
12:55 PM 57.2 °F 57.2 °F 100% 29.77 in 10.0 mi SSE 4.6 mph - 0.04 in   Overcast
1:15 PM 57.2 °F 57.2 °F 100% 29.75 in 10.0 mi SE 8.1 mph - 0.01 in   Overcast
1:35 PM 57.2 °F 57.2 °F 100% 29.73 in 10.0 mi SE 10.4 mph - 0.01 in   Mostly Cloudy
1:55 PM 57.2 °F 57.2 °F 100% 29.73 in 10.0 mi SE 8.1 mph - 0.02 in   Overcast
2:15 PM 57.2 °F 57.2 °F 100% 29.71 in 10.0 mi SE 5.8 mph - N/A   Mostly Cloudy
2:35 PM 57.2 °F 57.2 °F 100% 29.70 in 10.0 mi SE 5.8 mph - N/A   Overcast
2:55 PM 59.0 °F 59.0 °F 100% 29.69 in 10.0 mi South 5.8 mph - N/A   Overcast
3:15 PM 57.2 °F 57.2 °F 100% 29.68 in 10.0 mi SSE 5.8 mph - N/A   Overcast
3:35 PM 57.2 °F 57.2 °F 100% 29.68 in 10.0 mi SSE 6.9 mph - N/A   Overcast
3:55 PM 57.2 °F 57.2 °F 100% 29.66 in 10.0 mi SE 9.2 mph - N/A   Overcast
4:15 PM 57.2 °F 57.2 °F 100% 29.65 in 10.0 mi SE 8.1 mph - N/A   Overcast
4:35 PM 57.2 °F 57.2 °F 100% 29.65 in 10.0 mi SSE 6.9 mph - N/A   Overcast
4:55 PM 57.2 °F 57.2 °F 100% 29.65 in 9.0 mi South 5.8 mph - N/A   Overcast
5:15 PM 57.2 °F 57.2 °F 100% 29.64 in 8.0 mi SSE 6.9 mph - 0.03 in   Overcast
5:35 PM 57.2 °F 57.2 °F 100% 29.64 in 2.5 mi SE 6.9 mph - 0.08 in   Overcast
5:55 PM 57.2 °F 57.2 °F 100% 29.63 in 2.5 mi SSE 5.8 mph - 0.14 in   Overcast
6:15 PM 57.2 °F 57.2 °F 100% 29.61 in 2.5 mi ESE 5.8 mph - 0.07 in   Mostly Cloudy
6:35 PM 55.4 °F 55.4 °F 100% 29.60 in 5.0 mi SE 6.9 mph - 0.09 in   Overcast
6:55 PM 55.4 °F 55.4 °F 100% 29.60 in 8.0 mi SSE 9.2 mph - 0.11 in   Overcast
7:15 PM 55.4 °F 55.4 °F 100% 29.62 in 8.0 mi West 8.1 mph - 0.02 in   Overcast
7:35 PM 53.6 °F 53.6 °F 100% 29.63 in 5.0 mi WSW 9.2 mph - 0.15 in   Overcast
7:55 PM 53.6 °F 53.6 °F 100% 29.62 in 10.0 mi SSE 3.5 mph - 0.16 in   Overcast
8:15 PM 53.6 °F 53.6 °F 100% 29.61 in 10.0 mi ESE 4.6 mph - N/A   Overcast
8:35 PM 55.4 °F 55.4 °F 100% 29.60 in 9.0 mi SE 4.6 mph - 0.01 in   Overcast
8:55 PM 55.4 °F 55.4 °F 100% 29.61 in 10.0 mi South 4.6 mph - 0.01 in   Overcast
9:15 PM 57.2 °F 55.4 °F 94% 29.60 in 9.0 mi SSW 11.5 mph 20.7 mph 0.01 in   Overcast
9:35 PM 55.4 °F 55.4 °F 100% 29.60 in 10.0 mi SSW 5.8 mph - 0.01 in   Overcast
9:55 PM 55.4 °F 55.4 °F 100% 29.59 in 10.0 mi SE 3.5 mph - 0.01 in   Mostly Cloudy
10:15 PM 55.4 °F 55.4 °F 100% 29.58 in 10.0 mi SE 3.5 mph - N/A   Mostly Cloudy
10:35 PM 55.4 °F 55.4 °F 100% 29.58 in 10.0 mi SSE 4.6 mph - N/A   Overcast
10:55 PM 55.4 °F 55.4 °F 100% 29.58 in 9.0 mi SSE 6.9 mph - N/A   Overcast
11:15 PM 55.4 °F 55.4 °F 100% 29.57 in 10.0 mi South 13.8 mph 19.6 mph 0.02 in   Overcast
11:35 PM 57.2 °F 57.2 °F 100% 29.57 in 9.0 mi SSW 26.5 mph 38.0 mph 0.08 in   Overcast
11:55 PM 53.6 °F 53.6 °F 100% 29.58 in 10.0 mi South 10.4 mph 20.7 mph 0.11 in   Mostly Cloudy